Simultaneous Nadir Overpasses (SNOs) Predictions

Prediction of SNOs between GOES-15 and METOP-C Satellite Orbit:

Table of predicted SNOs for the next 14.0 days since TLE Epoch: 7/10/2023
Index Date Time (GOES-15) GOES-15 Lat,Lon METOP-C Lat,Lon Distance(km) Time Diff (sec)
1 07/12/2023 09:22:09 0.16,-179.93 0.49,-178.48 166.08 80
2 07/13/2023 21:43:45 -0.12, 178.48 0.23, 176.89 180.86 80
3 07/14/2023 21:20:30 -0.17, 177.47 -1.14,-178.17 496.74 80
4 07/16/2023 09:39:34 0.14, 175.95 0.41, 177.17 139.08 80
5 07/17/2023 22:01:10 -0.10, 174.37 0.31, 172.54 208.50 80
6 07/18/2023 21:37:55 -0.15, 173.37 -1.06, 177.48 468.84 80
7 07/20/2023 09:56:59 0.12, 171.85 0.35, 172.82 111.23 80
8 07/21/2023 22:18:35 -0.08, 170.27 0.38, 168.19 236.40 80
9 07/22/2023 21:55:20 -0.13, 169.26 -1.00, 173.13 440.97 80
